IRIDIUM 98 [+]

Last updated on Fri Jul 06 2018 00:20:24 GMT+0000 (Coordinated Universal Time)

1 27451U 02031B 18186.55157686 -.00000013 00000-0 -11813-4 0 9996 2 27451 86.3963 221.8882 0002431 97.9326 262.2145 14.34222576846234

Satellite not in orbit

IRIDIUM 98 [+]